User: anonymous   Login
Location: Potomac
(46.8816°N, 113.5795°W)
Time: 14:50:19
(UTC+00:00)
Language:

UKube-1 - Orbit

View from above orbital plane
View from above orbital plane
View from above satellite
View from above satellite

Ground track
Ground track

The orbit data is extracted from the following two-line orbital elements,

1 40074U 14037F   22176.16550198  .00001674  00000-0  20119-3 0  9997
2 40074  98.3815  57.2382 0003057 271.9929  88.0928 14.85428930431212
Epoch (UTC): 25 June 2022 03:58:19
Eccentricity: 0.0003057
inclination: 98.3815°
perigee height: 610 km
apogee height: 614 km
right ascension of ascending node: 57.2382°
argument of perigee: 271.9929°
revolutions per day: 14.85428930
mean anomaly at epoch: 88.0928°
orbit number at epoch: 43121

The dashed part of the orbit path shows where the satellite is in the earth's shadow,  

DLR